Weather Roundup
Issued by NWS Chicago, IL

Home | Current Version | Previous Version | Text Only | Print | Product List | Glossary Off
Versions: 1 2 3 4 5 6 7 8 9 10 11 12 13 14 15 16 17 18 19 20 21 22 23 24 25 26 27 28 29 30 31 32 33 34 35 36 37 38 39 40 41 42 43 44 45 46 47 48 49 50

000
NZUS59 KLOT 020112
HRRLOT

CHICAGO AREA WEATHER ROUNDUP
NATIONAL WEATHER SERVICE CHICAGO/ROMEOVILLE IL
800 PM CDT WED JUL 01 2015

NOTE: "FAIR" INDICATES FEW OR NO CLOUDS BELOW 12,000 FEET WITH NO
SIGNIFICANT WEATHER AND/OR OBSTRUCTIONS TO VISIBILITY.

* THESE STATIONS ARE NOT UNDER NWS QUALITY CONTROL. THEY ALSO MAY NOT
  REPORT WEATHER SUCH AS PRECIPITATION OR FOG.

ILZ005-006-012>014-019>023-020200-
NORTHEAST ILLINOIS

CITY           SKY/WX    TMP DP  RH WIND       PRES   REMARKS
OHARE          CLOUDY    57  50  77 NE10      29.99R
MIDWAY         MOCLDY    60  51  72 NE13      29.99R
AURORA         CLOUDY    62  51  67 NE10      29.99R
LANSING*       MOCLDY    58  50  74 NE7       29.99R
JOLIET*        MOCLDY    62  53  71 NE12      29.98R
WAUKEGAN       CLOUDY    54  50  86 NE6       29.99S
DUPAGE AIRPORT CLOUDY    59  50  72 NE10      29.98R
WHEELING       CLOUDY    56  50  80 NE7       30.01S
KANKAKEE*      PTCLDY    63  53  71 NE10      29.97S
MORRIS*        CLOUDY    64  54  70 E8        29.95R
LEWIS AIRPORT* CLOUDY    60  50  71 E12       29.99R
NORTHERLY IS     N/A     56  51  84 NE10        N/A
$$

WIZ051-052-058>065-066-070>072-020200-
SOUTHEAST WISCONSIN

CITY           SKY/WX    TMP DP  RH WIND       PRES   REMARKS
MILWAUKEE      MOCLDY    57  49  74 N5        30.01R
KENOSHA*       CLOUDY    56  50  80 E3        30.01R
RACINE*        CLOUDY    56  49  77 CALM      30.02R
BURLINGTON     CLOUDY    55  50  82 E9        30.00S
WAUKESHA       CLEAR     55  50  82 E6        30.02R
WEST BEND      CLEAR     59  52  77 CALM      30.00S
$$

INZ001>003-010>013-019-020-020200-
NORTHWEST INDIANA

CITY           SKY/WX    TMP DP  RH WIND       PRES   REMARKS
GARY*          MOCLDY    59  54  82 N9        29.99S
MICHIGAN CITY* NOT AVBL
RENSSELAER*    NOT AVBL
VALPARAISO     MOCLDY    58  51  78 N7        29.99R
$$

LMZ740>746-020200-
SOUTHERN LAKE MICHIGAN

STATION/POSITION TIME  SKY/WX   TEMP WIND        PRES    VSBY
                                AIR  DIR/SP/G
                 (UTC)          (F)  (DEG/KT/KT) (MB)    (MI)
HARRISON CRIB    0000            56   30/  9/ 11   N/A
BURNHAM HARBOR   0100            56   10/  9/ 12   N/A
CALUMET HARBOR   0000            58   10/  9/ 11   N/A
BURNS HARBOR     0000            60   30/ 12/ 14 1015.9R
MICHIGAN CITY    0000            58   20/ 12/ 15   N/A
$$

ABBREVIATIONS USED IN REMARKS
   TC - TEMPERATURE IN CELSIUS
  WCI - WIND CHILL INDEX
   HX - HEAT INDEX
  VSB - VISIBILITY
$$



USA.gov is the U.S. government's official web portal to all federal, state and local government web resources and services.